Columbia, SC

4:35 AM EDT on May 27, 2018 (GMT -0400)
Columbia Metro

Weather History for KCAE - August, 2013

Change the Weather History Date:

Wednesday, August 21, 2013

  Actual Average Record
Temperature  
Mean Temperature 80 °F 80 °F  
Max Temperature 88 °F 90 °F 107 °F (1983)
Min Temperature 72 °F 71 °F 59 °F (1998)
Degree Days  
Heating Degree Days 0 0  
Month to date heating degree days 0 0  
Since 1 June heating degree days 0 1  
Since 1 July heating degree days 0 0  
Cooling Degree Days 15 16  
Month to date cooling degree days 310 346  
Year to date cooling degree days 1552 1623  
Since 1 June cooling degree days 1232 1302  
Growing Degree Days 30 (Base 50)    
Moisture  
Dew Point 74 °F    
Average Humidity 85    
Maximum Humidity 100    
Minimum Humidity 70    
Precipitation  
Precipitation 0.30 in 0.17 in 2.25 in (1927)
Month to date precipitation 7.51 3.74  
Year to date precipitation 43.51 30.40  
Sea Level Pressure  
Sea Level Pressure 30.17 in    
Wind  
Wind Speed 2 mph (NE)    
Max Wind Speed 13 mph    
Max Gust Speed 16 mph    
Visibility 4 miles    
Events Fog , Rain    
T = Trace of Precipitation, MM = Missing Value Source: NWS Daily Summary

Daily Weather History Graph

Daily Weather History Graph

Search for Another Location

Airport or City:

Astronomy

Aug. 21, 2013 Rise Set
Actual Time 6:50 AM EDT 8:03 PM EDT
Civil Twilight 6:24 AM EDT 8:29 PM EDT
Nautical Twilight 5:53 AM EDT 9:00 PM EDT
Astronomical Twilight 5:21 AM EDT 9:32 PM EDT
Moon 8:17 PM EDT (8/21) 7:24 AM EDT (8/21)
Length of Visible Light 14h 05m
Length of Day
13h 13m
Full, 100% of the Moon is Illuminated
Aug 21
Full
Aug 28
Last Quarter
Sep 5
New
Sep 12
First Quarter
Sep 19
Full

Hourly Weather History & Observations

Time (EDT) Temp. Heat Index Dew Point Humidity Pressure Visibility Wind Dir Wind Speed Gust Speed Precip Events Conditions
12:56 AM 73.9 °F - 73.9 °F 100% 30.17 in 2.0 mi Calm Calm - N/A   Scattered Clouds
1:03 AM 73.4 °F - 73.4 °F 100% 30.17 in 1.0 mi Calm Calm - N/A   Scattered Clouds
1:15 AM 73.4 °F - 73.4 °F 100% 30.17 in 2.0 mi Calm Calm - N/A   Scattered Clouds
1:24 AM 73.4 °F - 73.4 °F 100% 30.17 in 4.0 mi West 3.5 mph - N/A   Scattered Clouds
1:56 AM 73.9 °F - 73.9 °F 100% 30.16 in 4.0 mi Calm Calm - N/A   Scattered Clouds
2:52 AM 73.4 °F - 71.6 °F 94% 30.17 in 1.0 mi Calm Calm - N/A   Mostly Cloudy
2:56 AM 73.0 °F - 72.0 °F 96% 30.16 in 1.0 mi Calm Calm - N/A   Overcast
3:12 AM 71.6 °F - 71.6 °F 100% 30.16 in 0.5 mi Calm Calm - N/A Fog Fog
3:56 AM 73.0 °F - 73.0 °F 100% 30.14 in 0.5 mi Calm Calm - N/A Fog Fog
4:03 AM 73.4 °F - 73.4 °F 100% 30.15 in 0.2 mi Calm Calm - N/A Fog Fog
4:29 AM 71.6 °F - 71.6 °F 100% 30.15 in 0.5 mi Calm Calm - N/A Fog Fog
4:40 AM 71.6 °F - 71.6 °F 100% 30.15 in 0.2 mi Calm Calm - N/A Fog Fog
4:56 AM 73.0 °F - 73.0 °F 100% 30.15 in 0.5 mi Calm Calm - N/A Fog Fog
5:02 AM 73.4 °F - 73.4 °F 100% 30.16 in 1.2 mi Calm Calm - N/A   Overcast
5:17 AM 73.4 °F - 73.4 °F 100% 30.16 in 2.0 mi Calm Calm - N/A   Overcast
5:28 AM 73.4 °F - 73.4 °F 100% 30.16 in 1.5 mi Calm Calm - N/A   Overcast
5:36 AM 73.4 °F - 73.4 °F 100% 30.16 in 2.5 mi Calm Calm - N/A   Overcast
5:54 AM 73.4 °F - 73.4 °F 100% 30.16 in 6.0 mi Calm Calm - N/A   Overcast
5:56 AM 73.0 °F - 73.0 °F 100% 30.15 in 7.0 mi Calm Calm - N/A   Overcast
6:06 AM 71.6 °F - 71.6 °F 100% 30.16 in 1.0 mi ENE 3.5 mph - N/A   Overcast
6:16 AM 71.6 °F - 71.6 °F 100% 30.17 in 0.5 mi Calm Calm - N/A Fog Fog
6:56 AM 73.0 °F - 73.0 °F 100% 30.17 in 0.2 mi ESE 3.5 mph - N/A Fog Fog
7:13 AM 73.4 °F - 73.4 °F 100% 30.18 in 0.2 mi East 3.5 mph - N/A Fog Fog
7:23 AM 73.4 °F - 73.4 °F 100% 30.19 in 0.2 mi Calm Calm - N/A Fog Fog
7:54 AM 73.4 °F - 73.4 °F 100% 30.20 in 2.0 mi Calm Calm - N/A   Overcast
7:56 AM 73.0 °F - 73.0 °F 100% 30.19 in 5.0 mi Calm Calm - N/A   Overcast
7:59 AM 73.4 °F - 73.4 °F 100% 30.20 in 2.0 mi Calm Calm - N/A   Overcast
8:04 AM 73.4 °F - 73.4 °F 100% 30.21 in 1.0 mi Calm Calm - N/A   Overcast
8:33 AM 73.4 °F - 73.4 °F 100% 30.21 in 1.0 mi Calm Calm - N/A   Overcast
8:43 AM 73.4 °F - 73.4 °F 100% 30.21 in 1.5 mi SSE 3.5 mph - N/A   Overcast
8:52 AM 73.4 °F - 73.4 °F 100% 30.22 in 0.5 mi Calm Calm - N/A Fog Fog
8:56 AM 73.9 °F - 73.9 °F 100% 30.21 in 0.5 mi Calm Calm - N/A Fog Fog
9:06 AM 75.2 °F - 75.2 °F 100% 30.22 in 0.5 mi Calm Calm - N/A Fog Fog
9:17 AM 75.2 °F - 75.2 °F 100% 30.23 in 1.0 mi Calm Calm - N/A   Overcast
9:56 AM 75.9 °F - 75.0 °F 97% 30.23 in 1.5 mi SSE 3.5 mph - N/A   Overcast
10:07 AM 78.8 °F - 75.2 °F 89% 30.24 in 4.0 mi Calm Calm - N/A   Overcast
10:44 AM 78.8 °F - 75.2 °F 89% 30.23 in 8.0 mi Calm Calm - N/A   Overcast
10:56 AM 79.0 °F - 75.0 °F 88% 30.22 in 9.0 mi ENE 3.5 mph - N/A   Mostly Cloudy
11:08 AM 80.6 °F 86.2 °F 75.2 °F 84% 30.22 in 10.0 mi SSE 4.6 mph - N/A   Mostly Cloudy
11:18 AM 82.4 °F 89.5 °F 75.2 °F 79% 30.21 in 10.0 mi SSE 6.9 mph - N/A   Scattered Clouds
11:56 AM 84.9 °F 94.1 °F 75.9 °F 74% 30.20 in 10.0 mi South 5.8 mph - N/A   Scattered Clouds
12:24 PM 84.2 °F 92.3 °F 75.2 °F 74% 30.21 in 10.0 mi Calm Calm - N/A   Mostly Cloudy
12:56 PM 86.0 °F 95.1 °F 75.0 °F 70% 30.19 in 10.0 mi Calm Calm - N/A   Mostly Cloudy
1:56 PM 82.9 °F 90.2 °F 75.0 °F 77% 30.17 in 10.0 mi NE 4.6 mph - 0.00 in   Mostly Cloudy
2:04 PM 80.6 °F 86.2 °F 75.2 °F 84% 30.18 in 1.0 mi NE 5.8 mph - 0.00 in Rain Rain
2:06 PM 78.8 °F - 75.2 °F 89% 30.18 in 4.0 mi NE 10.4 mph - 0.06 in Rain Rain
2:56 PM 79.0 °F - 71.1 °F 77% 30.17 in 10.0 mi NE 8.1 mph - 0.22 in   Overcast
3:07 PM 78.8 °F - 71.6 °F 78% 30.17 in 1.8 mi Calm Calm - 0.01 in Rain Heavy Rain
3:15 PM 77.0 °F - 73.4 °F 89% 30.16 in 6.0 mi North 6.9 mph - 0.06 in Rain Rain
3:56 PM 84.0 °F 91.9 °F 75.0 °F 74% 30.14 in 10.0 mi Calm Calm - 0.08 in   Mostly Cloudy
4:56 PM 87.1 °F 98.8 °F 77.0 °F 72% 30.14 in 10.0 mi West 8.1 mph - 0.00 in   Scattered Clouds
5:56 PM 84.9 °F 91.4 °F 73.0 °F 67% 30.12 in 10.0 mi NNW 5.8 mph - 0.00 in   Scattered Clouds
6:56 PM 81.0 °F 85.8 °F 73.0 °F 77% 30.13 in 10.0 mi NNW 3.5 mph - N/A   Scattered Clouds
7:56 PM 79.0 °F - 73.9 °F 84% 30.10 in 10.0 mi Calm Calm - N/A   Mostly Cloudy
8:56 PM 78.1 °F - 73.9 °F 87% 30.12 in 10.0 mi Calm Calm - N/A   Mostly Cloudy
9:56 PM 78.1 °F - 75.0 °F 90% 30.17 in 10.0 mi WNW 5.8 mph - N/A   Overcast
10:56 PM 78.1 °F - 75.0 °F 90% 30.17 in 10.0 mi NW 4.6 mph - 0.00 in Rain Light Rain
11:56 PM 77.0 °F - 75.0 °F 94% 30.16 in 10.0 mi Calm Calm - 0.00 in   Scattered Clouds